sat.trackr.live / text

‹ back to catalog

STARLINK-11305 [DTC]

NORAD 61247 · 2024-175E

PAYLOAD ACTIVE UNKNOWN

§ Identity

Operator
Country
US
Launch date
2024-09-25
Launch site
AFWTR
Launch vehicle
Mass (kg)
RCS (m²)

Purposes: comms

External: N2YO · Heavens-Above · Gunter

§ Orbital elements

Epoch: 2026-05-24T23:50:49.994880Z

Period
91.74 min
Inclination
53.1594°
Eccentricity
0.0001119
Mean motion
15.69693500 rev/d
Perigee alt
359.0 km
Apogee alt
360.5 km
Semi-major
6,737.9 km
B*
1.2046e-5
RAAN
39.9128°
Arg perigee
72.7567°
Mean anomaly
287.3573°
Rev number
9,535

§ Raw data

STARLINK-11305 [DTC]1 61247U 24175E   26144.99363420  .00000870  00000+0  12046-4 0  99932 61247  53.1594  39.9128 0001119  72.7567 287.3573 15.69693500 95358

JSON: /api/v1/satellites/61247 · /tle

For live sub-satellite position, see the globe view (requires WebGL).

§ Visibility from observer

Set your observer location to see the next 7 days of passes ≥ 10°. The values pass through the URL so the page stays shareable.

No JS? Fill the form by hand. The geolocation button needs JavaScript.